Flag for U.S.A. Weather past 2 weeks in Visalia, California, U.S.A.

42 °F


Feels Like: 42 °F
Forecast: 34 / 52 °F
Wind: No wind

Location: Visalia Municipal

Current Time: Nov 25, 2015 at 10:12:16 PM

Latest Report: Nov 25, 2015 at 8:56 PM

Visibility: 10 mi

Pressure: 30.03 "Hg

Humidity: 92%

Dew point: 40 °F

Location of VisaliaLocation

Historic Weather in Visalia — Graph


Visalia temperature yesterday

Maximum temperature yesterday: 63 °F (at 1:56 PM)
Minimum temperature yesterday: 41 °F (at 3:56 AM)
Average temperature yesterday: 49 °F

Past Weeks' High & Low Weather Summary

High78 °F (Nov 23, 1:56 PM)100% (Nov 11, 3:00 AM)30.46 "Hg (Nov 11, 3:00 AM)
Low35 °F (Nov 18, 4:56 AM)22% (Nov 23, 1:56 PM)29.86 "Hg (Nov 15, 2:56 AM)
Average49 °F80%30.11 "Hg
* Reported Nov 10 7:56 PM — Nov 25 7:56 PM, Visalia, Weather by CustomWeather, © 2015

Note: Actual official high and low records may vary slightly from our data, if they occured in-between our weather recording intervals... More about our weather records


Visalia weather history for previous 24 hours

Time TempWeatherWind HumidityBarometerVisibility
7:56 PM
Wed, Nov 25
43 °FClear.No wind89%30.01 "Hg10 mi
6:56 PM48 °FMostly cloudy.No wind77%30.01 "Hg10 mi
5:56 PM48 °FOvercast.No wind86%29.99 "Hg10 mi
4:56 PM50 °FOvercast.No wind68%29.98 "Hg10 mi
3:56 PM51 °FOvercast.No wind63%29.98 "Hg10 mi
2:56 PM51 °FPartly sunny.5 mph63%29.96 "Hg10 mi
1:56 PM51 °FMostly cloudy.7 mph69%29.96 "Hg10 mi
12:56 PM51 °FMostly cloudy.9 mph69%29.97 "Hg10 mi
11:56 AM49 °FLight rain. More clouds than sun.5 mph77%29.98 "Hg10 mi
10:56 AM49 °FMostly cloudy.3 mph77%29.99 "Hg10 mi
9:56 AM48 °FPassing clouds.No wind83%29.99 "Hg10 mi
8:56 AM44 °FPartly sunny.5 mph93%29.98 "Hg10 mi
7:56 AM42 °FLight rain. Mostly cloudy.5 mph96%29.97 "Hg8 mi
6:56 AM41 °FLight rain. Fog.3 mph96%29.95 "Hg5 mi
5:56 AM39 °FLight rain. Mostly cloudy.6 mph96%29.93 "Hg8 mi
4:56 AM37 °FPassing clouds.5 mph96%29.93 "Hg7 mi
3:56 AM38 °FFog.3 mph97%29.95 "Hg4 mi
2:56 AM39 °FClear.5 mph96%29.96 "Hg10 mi
1:56 AM41 °FClear.5 mph93%29.97 "Hg10 mi
12:56 AM42 °FClear.No wind96%29.97 "Hg10 mi
11:56 PM
Tue, Nov 24
44 °FClear.5 mph93%29.97 "Hg10 mi
10:56 PM46 °FPassing clouds.5 mph93%29.96 "Hg10 mi
Weather by CustomWeather, © 2015

See weather overviewHow to use our weather pages